Location: Diebersbach
(48.5163°N, 8.0558°E)
Time: 08:49:09
(UTC+00:00)

USA 305 - Pass Details

Date: 20 June 2021
Orbit: 558 x 580 km, 54.0° (Epoch: 13 July)

Event Time Altitude Azimuth Distance (km) Brightness Sun altitude
Exits shadow 01:10:12 26° 195° (SSW) 1,124 3.8 -14.6°
Maximum altitude 01:12:05 43° 141° (SE) 796 3.4 -14.5°
Drops below altitude 10° 01:16:04 10° 70° (ENE) 1,853 6.2 -14.2°
Sets 01:18:24 0° 63° (ENE) 2,754 7.3 -14.0°
